Torna al catalogo

DELTA 1 DEB

AttivoPO
NORAD 21268·DEBRIS·🇺🇸 United States

Lanciato Jun 12, 1975 da Vandenberg Space Force Base

Loading…

Prossimi Passaggi (prossime 24 ore)

TLE

AggiornatoSource: Space-Track

Epoca: Sep 14, 2026, 08:38 UTC

1 21268U 75052D   26257.36033244 -.00000193  00000-0 -42597-3 0  9990
2 21268  99.8206 287.7228 0200034  95.4938 277.9500 13.06739075685435

Traccia DELTA 1 DEB in tempo reale con AllMySat

Download on the App Store